TimeEST,TemperatureF,Dew PointF,Humidity,Sea Level PressureIn,VisibilityMPH,Wind Direction,Wind SpeedMPH,Gust SpeedMPH,PrecipitationIn,Events,Conditions,WindDirDegrees,DateUTC
12:15 AM,62.2,51.8,69,29.99,10.0,SSW,12.7,-,N/A,,Overcast,210,2013-12-21 05:15:00
12:35 AM,62.1,51.8,69,29.98,10.0,SSW,9.2,-,N/A,,Overcast,200,2013-12-21 05:35:00
12:55 AM,61.7,51.4,69,29.97,10.0,SSW,11.5,-,N/A,,Overcast,200,2013-12-21 05:55:00
1:15 AM,61.7,51.4,69,29.97,10.0,South,9.2,-,N/A,,Overcast,190,2013-12-21 06:15:00
1:35 AM,62.1,51.4,68,29.97,10.0,SSW,9.2,-,N/A,,Overcast,210,2013-12-21 06:35:00
1:55 AM,62.4,51.6,68,29.97,10.0,SSW,8.1,-,N/A,,Overcast,200,2013-12-21 06:55:00
2:15 AM,62.4,51.8,68,29.96,10.0,SSW,10.4,-,N/A,,Overcast,210,2013-12-21 07:15:00
2:35 AM,62.4,51.8,68,29.97,10.0,SSW,9.2,-,N/A,,Overcast,210,2013-12-21 07:35:00
2:55 AM,60.1,53.6,79,29.96,7.0,SSW,8.1,17.3,N/A,Rain,Light Rain,210,2013-12-21 07:55:00
3:15 AM,60.8,53.1,76,29.95,10.0,SSW,10.4,-,N/A,,Overcast,200,2013-12-21 08:15:00
3:35 AM,61.0,52.9,75,29.95,10.0,SSW,9.2,-,N/A,,Overcast,200,2013-12-21 08:35:00
3:55 AM,61.3,52.7,73,29.94,10.0,SSW,11.5,16.1,N/A,,Overcast,200,2013-12-21 08:55:00
4:15 AM,62.1,52.2,70,29.94,10.0,SSW,11.5,-,N/A,,Overcast,210,2013-12-21 09:15:00
4:35 AM,62.4,52.0,69,29.93,10.0,SSW,9.2,16.1,N/A,,Overcast,210,2013-12-21 09:35:00
4:55 AM,62.6,52.0,68,29.93,10.0,SSW,10.4,16.1,N/A,,Overcast,200,2013-12-21 09:55:00
5:15 AM,62.6,52.0,68,29.93,10.0,SSW,10.4,-,N/A,,Overcast,200,2013-12-21 10:15:00
5:35 AM,61.7,52.0,70,29.93,10.0,South,9.2,-,N/A,,Scattered Clouds,190,2013-12-21 10:35:00
5:55 AM,61.2,51.3,70,29.92,10.0,SSE,8.1,-,N/A,,Scattered Clouds,160,2013-12-21 10:55:00
6:15 AM,60.8,50.4,68,29.92,10.0,South,8.1,-,N/A,,Clear,180,2013-12-21 11:15:00
6:35 AM,60.8,50.4,68,29.92,10.0,South,6.9,-,N/A,,Scattered Clouds,180,2013-12-21 11:35:00
6:55 AM,60.1,50.4,70,29.92,10.0,South,8.1,-,N/A,,Scattered Clouds,180,2013-12-21 11:55:00
7:15 AM,61.0,50.4,68,29.91,10.0,South,8.1,-,N/A,,Scattered Clouds,180,2013-12-21 12:15:00
7:35 AM,61.0,50.2,68,29.90,10.0,South,9.2,-,N/A,,Scattered Clouds,170,2013-12-21 12:35:00
7:55 AM,61.0,50.4,68,29.90,10.0,South,8.1,-,N/A,,Clear,180,2013-12-21 12:55:00
8:15 AM,61.0,50.4,68,29.91,10.0,South,9.2,-,N/A,,Clear,190,2013-12-21 13:15:00
8:35 AM,61.0,50.5,68,29.90,10.0,South,8.1,-,N/A,,Clear,180,2013-12-21 13:35:00
8:55 AM,61.9,50.7,67,29.89,10.0,South,11.5,-,N/A,,Clear,170,2013-12-21 13:55:00
9:15 AM,62.4,51.3,67,29.90,10.0,South,11.5,-,N/A,,Clear,190,2013-12-21 14:15:00
9:35 AM,62.6,51.6,67,29.90,10.0,South,11.5,-,N/A,,Clear,190,2013-12-21 14:35:00
9:55 AM,63.0,52.0,67,29.90,10.0,South,11.5,-,N/A,,Mostly Cloudy,190,2013-12-21 14:55:00
10:15 AM,64.6,52.3,64,29.90,10.0,South,11.5,-,N/A,,Scattered Clouds,190,2013-12-21 15:15:00
10:35 AM,65.8,52.7,62,29.89,10.0,SSW,13.8,-,N/A,,Clear,200,2013-12-21 15:35:00
10:55 AM,68.9,53.6,58,29.88,10.0,South,13.8,-,N/A,,Scattered Clouds,190,2013-12-21 15:55:00
11:15 AM,71.8,54.0,53,29.87,10.0,SW,11.5,19.6,N/A,,Mostly Cloudy,220,2013-12-21 16:15:00
11:30 AM,72.9,54.5,52,29.87,10.0,South,13.8,21.9,N/A,,Mostly Cloudy,190,2013-12-21 16:30:00
11:55 AM,74.3,54.7,50,29.86,10.0,SW,15.0,24.2,N/A,,Clear,220,2013-12-21 16:55:00
12:15 PM,73.8,55.0,52,29.84,10.0,SSW,17.3,24.2,N/A,,Scattered Clouds,210,2013-12-21 17:15:00
12:35 PM,74.3,55.4,52,29.83,10.0,SSW,18.4,25.3,N/A,,Scattered Clouds,200,2013-12-21 17:35:00
12:55 PM,73.4,56.1,55,29.83,10.0,SW,21.9,31.1,N/A,,Scattered Clouds,220,2013-12-21 17:55:00
1:15 PM,72.7,56.3,56,29.83,10.0,SSW,15.0,20.7,N/A,,Mostly Cloudy,210,2013-12-21 18:15:00
1:35 PM,72.9,56.3,56,29.82,10.0,SSW,20.7,28.8,N/A,,Overcast,210,2013-12-21 18:35:00
1:55 PM,72.5,56.5,57,29.83,10.0,SW,15.0,21.9,N/A,,Overcast,220,2013-12-21 18:55:00
2:15 PM,72.5,56.5,57,29.82,10.0,SSW,16.1,24.2,N/A,,Overcast,210,2013-12-21 19:15:00
2:35 PM,72.1,56.3,57,29.83,10.0,SSW,12.7,19.6,N/A,,Overcast,210,2013-12-21 19:35:00
2:55 PM,72.0,56.3,58,29.83,10.0,SSW,15.0,19.6,N/A,,Overcast,210,2013-12-21 19:55:00
3:15 PM,71.8,56.3,58,29.82,10.0,SSW,6.9,-,N/A,,Overcast,200,2013-12-21 20:15:00
3:35 PM,71.8,56.3,58,29.82,10.0,SSW,6.9,18.4,N/A,,Overcast,210,2013-12-21 20:35:00
3:55 PM,72.1,56.7,58,29.83,10.0,SW,12.7,23.0,N/A,,Overcast,220,2013-12-21 20:55:00
4:15 PM,71.4,57.9,62,29.85,7.0,SW,17.3,24.2,N/A,,Unknown,220,2013-12-21 21:15:00
4:35 PM,69.6,58.5,68,29.84,10.0,SW,10.4,24.2,N/A,,Overcast,220,2013-12-21 21:35:00
4:55 PM,69.8,58.1,66,29.84,10.0,SW,9.2,-,N/A,,Overcast,230,2013-12-21 21:55:00
5:15 PM,70.2,58.1,65,29.83,10.0,SW,9.2,-,N/A,,Overcast,230,2013-12-21 22:15:00
5:35 PM,70.2,58.1,65,29.83,10.0,SSW,8.1,-,N/A,,Overcast,210,2013-12-21 22:35:00
5:55 PM,70.0,57.9,65,29.84,10.0,SW,5.8,-,N/A,,Overcast,220,2013-12-21 22:55:00
6:15 PM,69.8,57.7,65,29.84,10.0,SSW,9.2,-,N/A,,Overcast,210,2013-12-21 23:15:00
6:35 PM,70.2,58.1,65,29.83,10.0,South,13.8,-,N/A,,Mostly Cloudy,190,2013-12-21 23:35:00
6:55 PM,70.5,57.9,64,29.83,10.0,South,18.4,-,N/A,,Mostly Cloudy,190,2013-12-21 23:55:00
7:15 PM,70.7,58.1,64,29.83,10.0,SSW,16.1,23.0,N/A,,Overcast,200,2013-12-22 00:15:00
7:35 PM,70.7,58.1,64,29.82,10.0,SSW,12.7,23.0,N/A,,Overcast,200,2013-12-22 00:35:00
7:55 PM,70.2,58.1,65,29.82,10.0,South,11.5,-,N/A,,Overcast,190,2013-12-22 00:55:00
8:15 PM,70.0,57.7,65,29.81,10.0,South,9.2,-,N/A,,Overcast,190,2013-12-22 01:15:00
8:35 PM,70.5,57.6,63,29.81,10.0,South,11.5,-,N/A,,Overcast,190,2013-12-22 01:35:00
8:55 PM,70.9,57.2,62,29.79,10.0,South,11.5,18.4,N/A,,Mostly Cloudy,170,2013-12-22 01:55:00
9:15 PM,70.9,57.2,62,29.77,10.0,South,18.4,25.3,N/A,,Mostly Cloudy,170,2013-12-22 02:15:00
9:35 PM,70.9,57.4,62,29.76,10.0,South,13.8,23.0,N/A,,Scattered Clouds,180,2013-12-22 02:35:00
9:55 PM,70.7,57.6,63,29.75,10.0,South,16.1,20.7,N/A,,Mostly Cloudy,180,2013-12-22 02:55:00
10:15 PM,70.7,57.2,62,29.76,10.0,South,13.8,19.6,N/A,,Mostly Cloudy,190,2013-12-22 03:15:00
10:35 PM,70.3,57.2,63,29.75,10.0,South,12.7,17.3,N/A,,Mostly Cloudy,180,2013-12-22 03:35:00
10:55 PM,70.2,56.8,63,29.76,10.0,South,12.7,-,N/A,,Mostly Cloudy,180,2013-12-22 03:55:00
11:15 PM,70.5,56.8,62,29.72,10.0,South,13.8,21.9,N/A,,Mostly Cloudy,170,2013-12-22 04:15:00
11:35 PM,70.3,56.8,62,29.73,10.0,South,16.1,-,N/A,,Mostly Cloudy,180,2013-12-22 04:35:00
11:55 PM,68.0,58.8,72,29.73,10.0,South,16.1,-,N/A,Rain,Rain,190,2013-12-22 04:55:00